Location: Namasale
(1.5000°N, 32.6167°E)
Time: 21:12:06
(UTC+00:00)

Vanguard 3 - Pass Details

Date: 03 December 2021
Orbit: 508 x 3260 km, 33.3° (Epoch: 19 January)

Event Time Altitude Azimuth Distance (km) Brightness Sun altitude
Rises 21:31:36 0° 229° (SW) 5,009 11.4 -69.2°
Enters shadow 21:33:08 - 228° (SW) 4,618 11.1 -69.2°
Exits shadow 22:08:29 - 58° (ENE) 6,486 11.6 -68.1°
Sets 22:11:57 0° 57° (ENE) 7,198 11.9 -67.8°
